{"data":{"norad_id":53702,"intl_designator":"2022-107C","name":"STARLINK-4724","alt_names":[],"object_type":"PAYLOAD","status":"ACTIVE","operator":null,"country":"US","launch_date":"2022-09-05","launch_site_code":"AFETR","launch_vehicle":null,"mission":null,"orbit_class":"UNKNOWN","rcs_meters":null,"size_class":null,"mass_kg":null,"dimensions":null,"purposes":["comms"],"wikipedia_slug":null,"has_3d_model":false,"image_url":null,"decayed_at":null,"tle_current":{"epoch":"2026-09-20T04:16:24.106656Z","epoch_age_seconds":109102,"freshness":"FRESH","line1":"1 53702U 22107C   26263.17805679 -.00008234  00000+0 -22516-3 0  9998","line2":"2 53702  53.1602  63.5800 0001240  79.6931 280.4212 15.35433825224624","mean_motion":15.35433825,"eccentricity":0.000124,"inclination_deg":53.1602,"raan_deg":63.58,"arg_perigee_deg":79.6931,"mean_anomaly_deg":280.4212,"bstar":-0.00022516,"rev_number":22462,"period_min":93.784569321963,"perigee_km":458.78433527973,"apogee_km":460.48010204596,"semimajor_km":6837.7692186628,"source":"CELESTRAK","updated_at":"2026-09-21T09:00:32.981820Z"}}}